GW3359 Weather Reports


time (UTC)temp
F
wind
direction
speed
knots
gust
knots
rain 1hr
in
rain 24hr
in
rain mn
in
humidity
%
barometer
mb
20260906022507 81 175 0.0 0.0 0.00 0.00 0.00 77 1011.9
20260906022007 81 178 0.0 0.0 0.00 0.00 0.00 76 1011.9
20260906021514 82 176 0.0 0.0 0.00 0.00 0.00 75 1011.6
20260906021009 82 178 0.0 0.0 0.00 0.00 0.00 75 1011.6
20260906020508 82 177 0.0 0.0 0.00 0.00 0.00 75 1011.6
20260906020004 82 177 0.0 0.0 0.00 0.00 0.00 75 1011.5
20260906015502 83 170 0.0 0.0 0.00 0.00 0.00 74 1011.5
20260906015007 83 176 0.0 0.9 0.00 0.00 0.00 74 1011.6
20260906014523 83 177 0.0 0.9 0.00 0.00 0.00 74 1011.6
20260906014011 83 178 0.0 0.0 0.00 0.00 0.00 74 1011.6
20260906013507 83 178 0.0 0.9 0.00 0.00 0.00 72 1011.5
20260906013019 83 178 0.0 0.9 0.00 0.00 0.00 74 1011.4
20260906012510 83 178 0.0 6.1 0.00 0.00 0.00 73 1011.3
20260906012011 82 177 0.0 6.1 0.00 0.00 0.00 73 1011.4
20260906011532 82 225 0.9 6.1 0.00 0.00 0.00 74 1011.6
20260906011009 82 29 0.0 0.0 0.00 0.00 0.00 74 1011.6
20260906010509 83 30 0.0 0.0 0.00 0.00 0.00 75 1011.5
20260906010020 83 31 0.0 0.0 0.00 0.00 0.00 75 1011.5
20260906005508 83 31 0.0 0.0 0.00 0.00 0.00 74 1011.5
20260906005016 83 31 0.0 0.0 0.00 0.00 0.00 73 1011.4
20260906004512 84 31 0.0 0.0 0.00 0.00 0.00 74 1011.4
20260906004007 84 31 0.0 0.0 0.00 0.00 0.00 74 1011.3
20260906003506 84 31 0.0 0.0 0.00 0.00 0.00 73 1011.4
20260906003014 85 31 0.0 0.0 0.00 0.00 0.00 72 1011.3
20260906002507 85 31 0.0 0.0 0.00 0.00 0.00 72 1011.4
20260906002010 85 31 0.0 0.0 0.00 0.00 0.00 72 1011.4
20260906001520 86 31 0.0 0.0 0.00 0.00 0.00 69 1011.4
20260906001011 86 31 0.0 0.0 0.00 0.00 0.00 70 1011.3
20260906000515 87 31 0.0 0.0 0.00 0.00 0.00 69 1011.3
20260906000024 87 31 0.0 0.0 0.00 0.00 0.00 69 1011.2
20260905235512 88 31 0.0 0.0 0.00 0.00 0.00 68 1011.2
20260905235012 88 31 0.0 0.0 0.00 0.00 0.00 67 1011.2
20260905234525 89 31 0.0 0.0 0.00 0.00 0.00 65 1011.3
20260905234014 89 31 0.0 0.0 0.00 0.00 0.00 65 1011.3
20260905233510 90 31 0.0 0.0 0.00 0.00 0.00 63 1011.3
20260905233015 90 31 0.0 1.7 0.00 0.00 0.00 63 1011.4
20260905232508 91 31 0.0 3.5 0.00 0.00 0.00 61 1011.4
20260905232008 91 31 0.9 3.5 0.00 0.00 0.00 59 1011.2
20260905231518 91 354 0.0 2.6 0.00 0.00 0.00 60 1011.1
20260905231011 92 44 0.0 3.5 0.00 0.00 0.00 61 1011.3
20260905230511 93 342 0.0 3.5 0.00 0.00 0.00 59 1011.2
20260905230031 93 15 0.0 2.6 0.00 0.00 0.00 58 1011.2
20260905225513 94 319 0.9 2.6 0.00 0.00 0.00 57 1011.2
20260905225013 95 323 0.9 3.5 0.00 0.00 0.00 56 1011.1
20260905224530 95 120 0.0 4.3 0.00 0.00 0.00 54 1011.1
20260905224013 95 140 1.7 4.3 0.00 0.00 0.00 51 1011.1
20260905223512 95 56 0.9 3.5 0.00 0.00 0.00 54 1011.2
20260905223031 95 100 1.7 4.3 0.00 0.00 0.00 51 1011.2
20260905222519 95 115 0.9 4.3 0.00 0.00 0.00 50 1011.2
20260905222013 95 59 0.9 3.5 0.00 0.00 0.00 55 1011.2
20260905221516 95 44 0.9 4.3 0.00 0.00 0.00 52 1011.2
20260905221008 95 101 1.7 4.3 0.00 0.00 0.00 52 1011.2
20260905220510 96 46 1.7 5.2 0.00 0.00 0.00 50 1011.2
20260905220024 96 22 0.9 5.2 0.00 0.00 0.00 53 1011.2
20260905215513 96 70 1.7 5.2 0.00 0.00 0.00 48 1011.2
20260905215010 96 44 0.9 2.6 0.00 0.00 0.00 50 1011.2
20260905214530 96 83 0.0 3.5 0.00 0.00 0.00 54 1011.3
20260905214014 97 58 0.0 3.5 0.00 0.00 0.00 52 1011.3
20260905213518 97 38 0.0 4.3 0.00 0.00 0.00 54 1011.3
20260905213039 97 106 0.0 4.3 0.00 0.00 0.00 48 1011.3
20260905212518 96 64 0.9 4.3 0.00 0.00 0.00 50 1011.3
20260905212017 96 24 0.9 4.3 0.00 0.00 0.00 50 1011.3
20260905211534 96 41 1.7 4.3 0.00 0.00 0.00 50 1011.3
20260905211018 95 108 0.9 5.2 0.00 0.00 0.00 51 1011.4
20260905210513 95 71 0.0 6.1 0.00 0.00 0.00 52 1011.4
20260905210021 94 262 1.7 6.1 0.00 0.00 0.00 54 1011.5
20260905205512 94 303 0.0 1.7 0.00 0.00 0.00 57 1011.5
20260905205013 94 303 0.0 1.7 0.00 0.00 0.00 57 1011.6
20260905204527 95 303 0.0 1.7 0.00 0.00 0.00 57 1011.7
20260905204007 96 303 0.0 1.7 0.00 0.00 0.00 55 1011.8
20260905203503 97 303 0.0 5.2 0.00 0.00 0.00 53 1011.8
20260905203006 97 174 0.0 5.2 0.00 0.00 0.00 48 1011.9
20260905202503 97 236 0.9 6.1 0.00 0.00 0.00 49 1011.9
20260905202003 97 27 1.7 6.1 0.00 0.00 0.00 49 1012.0
20260905201510 97 66 2.6 5.2 0.00 0.00 0.00 50 1012.1
20260905201007 96 49 0.9 3.5 0.00 0.00 0.00 52 1012.2
20260905200507 96 38 0.0 2.6 0.00 0.00 0.00 52 1012.3
20260905200017 95 7 0.0 1.7 0.00 0.00 0.00 54 1012.4
20260905195509 95 127 0.0 1.7 0.00 0.00 0.00 52 1012.5
20260905195009 95 127 0.0 2.6 0.00 0.00 0.00 52 1012.5
20260905194524 95 127 0.0 2.6 0.00 0.00 0.00 52 1012.6
20260905194011 95 57 0.9 1.7 0.00 0.00 0.00 54 1012.6
20260905193516 95 57 0.0 4.3 0.00 0.00 0.00 53 1012.7
20260905193029 95 22 1.7 6.1 0.00 0.00 0.00 51 1012.7
20260905192504 95 105 0.0 6.1 0.00 0.00 0.00 50 1012.7
20260905192004 95 165 0.9 2.6 0.00 0.00 0.00 53 1012.7
20260905191509 95 18 0.0 1.7 0.00 0.00 0.00 54 1012.8
20260905191004 95 18 0.0 3.5 0.00 0.00 0.00 52 1012.9
20260905190503 96 38 0.9 4.3 0.00 0.00 0.00 48 1013.1
20260905190013 96 91 0.9 4.3 0.00 0.00 0.00 46 1013.2
20260905185507 96 266 0.0 5.2 0.00 0.00 0.00 50 1013.2
20260905185009 96 147 0.9 5.2 0.00 0.00 0.00 48 1013.3
20260905184521 95 49 0.0 2.6 0.00 0.00 0.00 51 1013.3
20260905184010 95 2 0.9 4.3 0.00 0.00 0.00 51 1013.4
20260905183512 95 234 1.7 4.3 0.00 0.00 0.00 48 1013.6
20260905183028 95 266 0.0 3.5 0.00 0.00 0.00 51 1013.7
20260905182514 96 192 0.9 3.5 0.00 0.00 0.00 50 1013.8
20260905182016 96 38 0.9 2.6 0.00 0.00 0.00 51 1013.8
20260905181535 95 68 0.0 1.7 0.00 0.00 0.00 53 1013.9
20260905181004 95 68 0.0 2.6 0.00 0.00 0.00 52 1014.0
20260905180506 95 68 0.0 3.5 0.00 0.00 0.00 54 1014.1
20260905180014 95 11 0.0 3.5 0.00 0.00 0.00 51 1014.1
20260905175507 95 56 0.9 2.6 0.00 0.00 0.00 52 1014.0
20260905175006 94 266 0.0 3.5 0.00 0.00 0.00 54 1014.1
20260905174523 94 181 0.0 3.5 0.00 0.00 0.00 53 1014.1
20260905174010 94 111 1.7 3.5 0.00 0.00 0.00 53 1014.2
20260905173512 94 108 0.0 4.3 0.00 0.00 0.00 56 1014.2
20260905173023 93 264 0.9 4.3 0.00 0.00 0.00 56 1014.3
20260905172512 93 240 0.9 2.6 0.00 0.00 0.00 57 1014.3
20260905172016 93 256 0.9 3.5 0.00 0.00 0.00 55 1014.3
20260905171529 93 179 0.0 3.5 0.00 0.00 0.00 58 1014.4
20260905171017 92 223 0.0 3.5 0.00 0.00 0.00 57 1014.4
20260905170515 92 202 0.9 4.3 0.00 0.00 0.00 60 1014.4
20260905170034 92 264 1.7 4.3 0.00 0.00 0.00 61 1014.4
20260905165507 91 50 0.0 5.2 0.00 0.00 0.00 62 1014.5
20260905165003 91 66 1.7 5.2 0.00 0.00 0.00 62 1014.6
20260905164516 90 37 0.9 2.6 0.00 0.00 0.00 62 1014.6
20260905164008 89 258 0.9 4.3 0.00 0.00 0.00 64 1014.7
20260905163508 89 81 0.0 4.3 0.00 0.00 0.00 65 1014.9
20260905163024 88 188 0.9 4.3 0.00 0.00 0.00 67 1014.9
20260905162515 88 44 0.0 4.3 0.00 0.00 0.00 68 1014.9
20260905162013 87 233 0.0 4.3 0.00 0.00 0.00 69 1015.0
20260905161530 87 277 0.0 4.3 0.00 0.00 0.00 68 1015.0
20260905161014 86 233 1.7 3.5 0.00 0.00 0.00 70 1015.1
20260905160515 86 293 0.0 4.3 0.00 0.00 0.00 73 1015.1
20260905160040 85 117 0.0 4.3 0.00 0.00 0.00 76 1015.1
20260905155517 85 266 0.0 2.6 0.00 0.00 0.00 76 1015.2
20260905155014 85 266 0.0 2.6 0.00 0.00 0.00 75 1015.2
20260905154534 84 75 0.9 2.6 0.00 0.00 0.00 75 1015.2
20260905154008 84 182 0.0 3.5 0.00 0.00 0.00 76 1015.2
20260905153508 83 255 0.9 3.5 0.00 0.00 0.00 77 1015.3
20260905153022 83 152 0.0 3.5 0.00 0.00 0.00 79 1015.3
20260905152512 82 179 0.9 5.2 0.00 0.00 0.00 80 1015.3
20260905152011 82 233 1.7 5.2 0.00 0.00 0.00 79 1015.4
20260905151530 81 98 0.0 0.9 0.00 0.00 0.00 81 1015.4
20260905151013 81 98 0.0 0.0 0.00 0.00 0.00 84 1015.4
20260905150514 81 98 0.0 0.0 0.00 0.00 0.00 84 1015.5
20260905150032 81 98 0.0 0.0 0.00 0.00 0.00 85 1015.5
20260905145516 80 98 0.0 0.0 0.00 0.00 0.00 85 1015.5
20260905145016 80 98 0.0 0.0 0.00 0.00 0.00 86 1015.7
20260905144536 80 98 0.0 0.0 0.00 0.00 0.00 86 1015.7
20260905144016 79 98 0.0 0.0 0.00 0.00 0.00 85 1015.7
20260905143508 79 98 0.0 0.0 0.00 0.00 0.00 87 1015.7
20260905143018 79 97 0.0 0.0 0.00 0.00 0.00 86 1015.6
20260905142512 78 96 0.0 0.0 0.00 0.00 0.00 87 1015.6
20260905142007 78 96 0.0 0.0 0.00 0.00 0.00 87 1015.6
20260905141527 78 96 0.0 0.0 0.00 0.00 0.00 88 1015.6
20260905141002 77 96 0.0 1.7 0.00 0.00 0.00 88 1015.5
20260905140504 77 98 0.0 1.7 0.00 0.00 0.00 89 1015.5
20260905140006 77 98 0.0 0.9 0.00 0.00 0.00 89 1015.5
20260905135504 76 98 0.0 0.9 0.00 0.00 0.00 89 1015.4
20260905135004 76 98 0.0 1.7 0.00 0.00 0.00 89 1015.5
20260905134510 76 98 0.0 1.7 0.00 0.00 0.00 90 1015.6
20260905134003 76 98 0.0 1.7 0.00 0.00 0.00 90 1015.6
20260905133508 75 98 0.9 1.7 0.00 0.00 0.00 91 1015.5
20260905133016 75 335 0.0 0.0 0.00 0.00 0.00 92 1015.5
20260905132508 75 335 0.0 0.0 0.00 0.00 0.00 92 1015.6
20260905132008 75 335 0.0 0.0 0.00 0.00 0.00 92 1015.6
20260905131528 74 335 0.0 0.0 0.00 0.00 0.00 92 1015.5
20260905131013 74 335 0.0 0.0 0.00 0.00 0.00 92 1015.5
20260905130512 74 335 0.0 0.0 0.00 0.00 0.00 92 1015.6
20260905130028 74 335 0.0 0.0 0.00 0.00 0.00 92 1015.6
20260905125505 73 335 0.0 0.0 0.00 0.00 0.00 92 1015.6
20260905125003 73 335 0.0 0.0 0.00 0.00 0.00 92 1015.8
20260905124507 73 335 0.0 0.0 0.00 0.00 0.00 92 1015.8
20260905124003 73 335 0.0 0.0 0.00 0.00 0.00 92 1015.7
20260905123503 73 335 0.0 0.0 0.00 0.00 0.00 92 1015.7
20260905123012 73 335 0.0 0.0 0.00 0.00 0.00 92 1015.6
20260905122506 72 335 0.0 0.0 0.00 0.00 0.00 92 1015.5
20260905122007 72 335 0.0 0.0 0.00 0.00 0.00 91 1015.4
20260905121520 72 335 0.0 0.0 0.00 0.00 0.00 91 1015.3
20260905121013 72 335 0.0 0.0 0.00 0.00 0.00 91 1015.3
20260905120509 72 335 0.0 0.0 0.00 0.00 0.00 91 1015.3
20260905120026 72 335 0.0 0.0 0.00 0.00 0.00 91 1015.3
20260905115512 72 335 0.0 0.0 0.00 0.00 0.00 91 1015.2
20260905115015 72 335 0.0 0.0 0.00 0.00 0.00 91 1015.2
20260905114539 72 335 0.0 0.0 0.00 0.00 0.00 91 1015.1
20260905114003 72 335 0.0 0.0 0.00 0.00 0.00 91 1015.0
20260905113504 72 335 0.0 0.0 0.00 0.00 0.00 91 1015.0
20260905113017 72 335 0.0 0.0 0.00 0.00 0.00 91 1014.9
20260905112504 72 335 0.0 0.0 0.00 0.00 0.00 91 1014.8
20260905112003 72 335 0.0 0.0 0.00 0.00 0.00 91 1014.7
20260905111517 72 335 0.0 0.0 0.00 0.00 0.00 91 1014.7
20260905111010 72 335 0.0 0.0 0.00 0.00 0.00 91 1014.6
20260905110508 72 335 0.0 0.0 0.00 0.00 0.00 91 1014.5
20260905110023 72 335 0.0 0.0 0.00 0.00 0.00 91 1014.4
20260905105512 72 335 0.0 0.0 0.00 0.00 0.00 91 1014.3
20260905105013 72 335 0.0 0.0 0.00 0.00 0.00 91 1014.4
20260905104530 72 335 0.0 0.0 0.00 0.00 0.00 91 1014.4
20260905104013 72 335 0.0 0.0 0.00 0.00 0.00 91 1014.4
20260905103516 72 335 0.0 0.0 0.00 0.00 0.00 91 1014.3
20260905103034 72 335 0.0 0.0 0.00 0.00 0.00 91 1014.1
20260905102503 72 335 0.0 0.0 0.00 0.00 0.00 91 1014.1
20260905102009 72 335 0.0 0.0 0.00 0.00 0.00 91 1014.1
20260905101520 72 335 0.0 0.0 0.00 0.00 0.00 91 1014.1
20260905101006 72 335 0.0 0.0 0.00 0.00 0.00 91 1014.0
20260905100510 72 335 0.0 0.0 0.00 0.00 0.00 91 1014.0
20260905100024 72 327 0.0 0.0 0.00 0.00 0.00 91 1014.0
20260905095510 72 329 0.0 0.0 0.00 0.00 0.00 90 1014.0
20260905095011 72 330 0.0 0.0 0.00 0.00 0.00 90 1014.0
20260905094525 72 330 0.0 0.0 0.00 0.00 0.00 90 1014.0
20260905094013 73 330 0.0 0.0 0.00 0.00 0.00 90 1014.0
20260905093514 73 331 0.0 0.0 0.00 0.00 0.00 90 1013.9
20260905093033 73 331 0.0 0.0 0.00 0.00 0.00 90 1014.0
20260905092515 73 331 0.0 0.0 0.00 0.00 0.00 90 1014.0
20260905092015 73 331 0.0 0.0 0.00 0.00 0.00 90 1014.0
20260905091533 73 332 0.0 0.0 0.00 0.00 0.00 90 1014.0
20260905091006 73 332 0.0 0.0 0.00 0.00 0.00 89 1014.0
20260905090506 73 332 0.0 0.0 0.00 0.00 0.00 90 1013.9
20260905090020 73 333 0.0 0.0 0.00 0.00 0.00 90 1013.9
20260905085513 73 333 0.0 0.0 0.00 0.00 0.00 90 1014.0
20260905085011 73 333 0.0 0.0 0.00 0.00 0.00 90 1014.0
20260905084528 73 333 0.0 0.0 0.00 0.00 0.00 89 1014.0
20260905084014 73 333 0.0 0.0 0.00 0.00 0.00 89 1014.0
20260905083512 73 333 0.0 0.0 0.00 0.00 0.00 89 1014.0
20260905083037 73 333 0.0 0.0 0.00 0.00 0.00 89 1014.0
20260905082513 73 333 0.0 0.0 0.00 0.00 0.00 89 1014.1
20260905082016 73 333 0.0 0.0 0.00 0.00 0.00 89 1014.1
20260905081532 73 333 0.0 0.0 0.00 0.00 0.00 89 1014.2
20260905081017 73 333 0.0 0.0 0.00 0.00 0.00 89 1014.1
20260905080504 73 333 0.0 0.0 0.00 0.00 0.00 89 1014.1
20260905080014 73 333 0.0 0.0 0.00 0.00 0.00 89 1014.2
20260905075508 73 333 0.0 0.0 0.00 0.00 0.00 89 1014.2
20260905075008 73 333 0.0 0.0 0.00 0.00 0.00 89 1014.1
20260905074526 74 333 0.0 0.0 0.00 0.00 0.00 89 1014.1
20260905074006 74 333 0.0 0.0 0.00 0.00 0.00 89 1014.1
20260905073504 74 333 0.0 0.0 0.00 0.00 0.00 89 1014.1
20260905073004 74 333 0.0 0.0 0.00 0.00 0.00 89 1014.1
20260905072505 74 333 0.0 0.0 0.00 0.00 0.00 89 1014.2
20260905072003 74 333 0.0 0.0 0.00 0.00 0.00 89 1014.2
20260905071510 74 333 0.0 0.0 0.00 0.00 0.00 89 1014.3
20260905071006 74 333 0.0 0.0 0.00 0.00 0.00 89 1014.3
20260905070504 74 333 0.0 0.0 0.00 0.00 0.00 89 1014.2
20260905070017 74 333 0.0 0.0 0.00 0.00 0.00 89 1014.2
20260905065505 74 334 0.0 0.0 0.00 0.00 0.00 89 1014.2
20260905065007 74 334 0.0 0.0 0.00 0.00 0.00 89 1014.3
20260905064528 74 334 0.0 0.0 0.00 0.00 0.00 89 1014.3
20260905064008 74 334 0.0 0.0 0.00 0.00 0.00 89 1014.3
20260905063509 74 334 0.0 0.0 0.00 0.00 0.00 89 1014.1
20260905063028 74 334 0.0 0.0 0.00 0.00 0.00 89 1014.0
20260905062504 74 334 0.0 0.0 0.00 0.00 0.00 89 1014.2
20260905062004 74 334 0.0 0.0 0.00 0.00 0.00 89 1014.4
20260905061505 74 334 0.0 0.0 0.00 0.00 0.00 89 1014.4
20260905061003 74 334 0.0 0.0 0.00 0.00 0.00 89 1014.3
20260905060505 74 334 0.0 0.0 0.00 0.00 0.00 89 1014.2
20260905060018 75 334 0.0 0.0 0.00 0.00 0.00 89 1014.2
20260905055505 75 334 0.0 0.0 0.00 0.00 0.00 89 1014.2
20260905055007 75 334 0.0 0.0 0.00 0.00 0.00 89 1014.3
20260905054516 75 334 0.0 0.0 0.00 0.00 0.00 89 1014.4
20260905054010 75 334 0.0 0.0 0.00 0.00 0.00 88 1014.4
20260905053509 75 334 0.0 0.0 0.00 0.00 0.00 88 1014.3
20260905053030 75 334 0.0 0.0 0.00 0.00 0.00 88 1014.3
20260905052517 75 334 0.0 0.0 0.00 0.00 0.00 88 1014.4
20260905052012 75 334 0.0 0.0 0.00 0.00 0.00 88 1014.4
20260905051529 75 334 0.0 0.0 0.00 0.00 0.00 88 1014.4
20260905051003 75 334 0.0 0.0 0.00 0.00 0.00 88 1014.3
20260905050505 75 334 0.0 0.0 0.00 0.00 0.00 88 1014.4
20260905050012 75 334 0.0 0.0 0.00 0.00 0.00 87 1014.4
20260905045506 75 334 0.0 0.0 0.00 0.00 0.00 87 1014.4
20260905045004 75 335 0.0 0.0 0.00 0.00 0.00 87 1014.5
20260905044516 76 335 0.0 0.0 0.00 0.00 0.00 87 1014.5
20260905044010 76 335 0.0 0.0 0.00 0.00 0.00 87 1014.5
20260905043510 76 335 0.0 0.0 0.00 0.00 0.00 87 1014.6
20260905043021 76 335 0.0 0.0 0.00 0.00 0.00 87 1014.5
20260905042511 76 335 0.0 0.0 0.00 0.00 0.00 87 1014.6
20260905042013 76 330 0.0 0.0 0.00 0.00 0.00 86 1014.6
20260905041530 76 332 0.0 0.0 0.00 0.00 0.00 86 1014.7
20260905041015 76 333 0.0 0.0 0.00 0.00 0.00 86 1014.7
20260905040513 76 333 0.0 0.0 0.00 0.00 0.00 86 1014.8
20260905040028 76 333 0.0 0.0 0.00 0.00 0.00 86 1014.8
20260905035506 76 333 0.0 0.0 0.00 0.00 0.00 86 1014.7
20260905035004 76 334 0.0 0.0 0.00 0.00 0.00 85 1014.7
20260905034512 76 334 0.0 0.0 0.00 0.00 0.00 85 1014.5
20260905034003 76 334 0.0 0.0 0.00 0.00 0.00 85 1014.6
20260905033507 76 334 0.0 0.0 0.00 0.00 0.00 84 1014.7
20260905033018 77 334 0.0 0.0 0.00 0.00 0.00 84 1014.7
20260905032510 77 334 0.0 0.0 0.00 0.00 0.00 84 1014.6
20260905032009 77 334 0.0 0.0 0.00 0.00 0.00 84 1014.9
20260905031529 77 334 0.0 0.0 0.00 0.00 0.00 84 1014.9
20260905031015 77 330 0.0 0.0 0.00 0.00 0.00 84 1015.0
20260905030516 77 332 0.0 0.0 0.00 0.00 0.00 84 1015.0
20260905030036 77 333 0.0 0.0 0.00 0.00 0.00 84 1015.2
20260905025515 77 334 0.0 0.0 0.00 0.00 0.00 84 1015.1
20260905025015 77 334 0.0 0.0 0.00 0.00 0.00 83 1015.2
20260905024534 77 334 0.0 0.0 0.00 0.00 0.00 83 1015.2
20260905024008 78 334 0.0 0.0 0.00 0.00 0.00 83 1015.2
20260905023505 78 334 0.0 0.0 0.00 0.00 0.00 83 1015.2
20260905023016 78 334 0.0 0.0 0.00 0.00 0.00 83 1015.1